Showing default

KUIPER-00499, 68881

Orbit data source: Space-Track

KUIPER-00499, 68881 is an American payload satellite in LEO that was launched on Tue, 28 Apr 2026 UTC launched from the Air Force Eastern Test Range (AFETR). Payload-class satellites include a variety of spacecraft equipped with specific instruments for various scientific and technological missions. These include communications satellites like Starlink; space stations such as the ISS; scientific satellites like the Hubble; Earth observation satellites from companies like Planet Labs, Umbra, and HawkEye 360; GPS; miniature CubeSats for education and research; and military/defense satellites.

Loading next visibility...
Identifier
68881, 2026-095T
Orbit
LEO
Country
Flag of USUS
Related business
None
Manufacturer
Unknown
Mission
Operational spacecraft
Bus & Motor
Unknown
Mass
Unknown
Launch date (UTC)
2026-04-28 (4 days ago)
Launch vehicle
Unknown
Launch site
Air Force Eastern Test Range (AFETR)
Object type
Payload
Rocket body
Debris
Shape & HBR
Unknown
Radar Cross Section
RCS unknown

Expand to show TLE details & history
Last TLE update: 7 hours ago

TLE from 7 hours ago
0 KUIPER-00499
1 68881U 26095T   26122.16670139 -.00003364  00000-0 -83388-4 0  9991
2 68881  51.8688 104.9538 0010320 135.4759  48.5054 15.36001649  1304
Epoch: 2026-05-02T04:00Z
TLE epoch observation values (Epoch: 2026-05-02T04:00:03.000Z)
Latitude
-3.29784°
Longitude
7.4309°
Altitude
454.526 km
Speed
7.643 km/s
True Right ascension
19h 10m 07s
True Declination
-3° 16' 38"
Sunlit
Object was in full shadow at epoch
Visualization orbit readout
Latitude
Unknown
Longitude
Unknown
Altitude
Unknown
Speed
Unknown
Apparent Right ascension
Unknown
Apparent Declination
Unknown
Sunlit
N/A
Visualization observer readout
Local Sidereal Time
18:41:12
Azimuth
Unknown
Elevation
Unknown
Doppler factor
Unknown
Orbital elements
Apogee altitude
465.47 km
Perigee altitude
451.359 km
Semi-major axis
6,836.551 km
Eccentricity
0.00103
Inclination
51.8688°
RAAN
104.9538°
Arg. of periapsis
135.4759°
True anomaly
48.59405°
Mean anomaly
48.5054°
Eccentric anomaly
48.54972°
Mean motion
3.83961 °/min
Orbital period
93.76 mins
BSTAR
-0.000083388
Loading maneuver chart data...
Computing Atmospheric mass density...
Loading historical data...
Loading historical data...
Loading historical data...
Loading historical data...
Loading historical data...
Loading historical data...
Loading historical data...

Documentation

Showing up to 5 results
|